Flag for Germany Weather past 2 weeks in Willich, North Rhine-Westphalia, Germany

Now
57 °F

Passing clouds.


Feels Like: 56 °F
Forecast: 48 / 68 °F
Wind: 7 mph from West

Location: Monchengladbach Airport

Current Time: May 30, 2015 at 9:22:54 PM

Latest Report: May 30, 2015 at 7:50 PM


Visibility: N/A

Pressure: 30.01 "Hg

Humidity: 59%

Dew point: 43 °F

Location of WillichLocation

Historic Weather in Willich — Graph

°F

Willich temperature yesterday

Maximum temperature yesterday: 63 °F (at 3:20 PM)
Minimum temperature yesterday: 52 °F (at 7:20 AM)
Average temperature yesterday: 58 °F

Past Weeks' High & Low Weather Summary

 TemperatureHumidityPressure
High70 °F (May 18, 4:50 PM)100% (May 16, 2:50 PM)30.33 "Hg (May 16, 2:50 PM)
Low41 °F (May 21, 6:20 AM)37% (May 27, 5:20 PM)29.65 "Hg (May 18, 6:20 PM)
Average59 °F61%30.05 "Hg
* Reported May 15 7:20 PM — May 30 7:50 PM, Willich, Weather by CustomWeather, © 2015

Note: Actual official high and low records may vary slightly from our data, if they occured in-between our weather recording intervals... More about our weather records

Advertising

Willich weather history for previous 24 hours

 ConditionsComfort  
Time TempWeatherWind HumidityBarometerVisibility
7:50 PM
Sat, May 30
57 °FPassing clouds.7 mph59%30.01 "HgN/A
7:20 PM57 °FPassing clouds.8 mph63%30.01 "HgN/A
6:50 PM57 °FPassing clouds.8 mph63%30.01 "HgN/A
6:20 PM55 °FPassing clouds.7 mph63%30.01 "HgN/A
5:50 PM55 °FPassing clouds.6 mph72%30.01 "HgN/A
5:20 PM55 °FPassing clouds.5 mph72%30.01 "HgN/A
4:50 PM52 °FPassing clouds.3 mph88%30.01 "HgN/A
4:20 PM50 °FPassing clouds.5 mph82%30.01 "HgN/A
3:50 PM55 °FPassing clouds.9 mph67%30.01 "HgN/A
3:20 PM55 °FPassing clouds.8 mph63%29.98 "HgN/A
2:50 PM50 °FPassing clouds.5 mph88%29.98 "HgN/A
2:20 PM48 °FScattered showers. Passing clouds.10 mph87%30.01 "HgN/A
1:50 PM48 °FPartly sunny.9 mph94%29.98 "HgN/A
1:20 PM48 °FRain showers. Partly sunny.17 mph87%29.98 "HgN/A
12:50 PM59 °FScattered showers. Scattered clouds.8 mph55%29.95 "HgN/A
12:20 PM59 °FScattered clouds.14 mph55%29.92 "HgN/A
11:50 AM55 °FScattered clouds.7 mph67%29.92 "HgN/A
11:20 AM57 °FScattered clouds.12 mph55%29.92 "HgN/A
10:50 AM55 °FScattered clouds.9 mph63%29.92 "HgN/A
10:20 AM54 °FScattered clouds.9 mph67%29.92 "HgN/A
9:50 AM55 °FScattered clouds.9 mph63%29.92 "HgN/A
9:20 AM55 °FScattered clouds.7 mph77%29.89 "HgN/A
8:50 AM52 °FPassing clouds.8 mph88%29.89 "HgN/A
8:20 AM50 °FPassing clouds.8 mph94%29.89 "HgN/A
7:50 AM50 °FScattered clouds.7 mph94%29.89 "HgN/A
Weather by CustomWeather, © 2015

See weather overviewHow to use our weather pages